Location: Gajan
(43.0218°N, 1.1244°E)
Time: 07:45:17
(UTC+00:00)

Lacrosse 5 rocket - Pass Details

Date: 22 April 2021
Orbit: 461 x 634 km, 57.0° (Epoch: 07 May)

Event Time Altitude Azimuth Distance (km) Brightness Sun altitude
Rises 20:41:06 0° 313° (NW) 2,734 6.5 -19.2°
Reaches altitude 10° 20:44:16 10° 339° (NNW) 1,879 4.9 -19.6°
Maximum altitude 20:46:34 14° 12° (NNE) 1,656 4.1 -19.9°
Drops below altitude 10° 20:48:56 10° 45° (NE) 1,933 4.1 -20.2°
Enters shadow 20:50:01 - 55° (NE) 2,193 4.2 -20.4°
